• En España
  • Lista de países
  • Para 7 días
  • Temperatura del agua
  • Mapa Satelital
  • El tiempo en el mapa
  • Informadores
  • user-avatar
    Iniciar sesión

    Tiempo cada hora Shusha

    Hoy, 22 Julio, Domingo

    Tiempo Temperatura Precipitaciones Viento Presión Humedad
    00:00 +20°C° 0 mm 2 mps 657 mmHg 71%
    01:00 +20°C° 0 mm 2 mps 657 mmHg 72%
    02:00 +20°C° 0 mm 2 mps 657 mmHg 72%
    03:00 +19°C° 0 mm 2 mps 657 mmHg 73%
    04:00 +21°C° 0 mm 1 mps 657 mmHg 72%
    05:00 +21°C° 0 mm 1 mps 657 mmHg 70%
    06:00 +21°C° 0 mm 1 mps 658 mmHg 69%
    07:00 +21°C° 0 mm 2 mps 658 mmHg 64%
    08:00 +23°C° 0 mm 2 mps 658 mmHg 59%
    09:00 +24°C° 0 mm 3 mps 659 mmHg 54%
    10:00 +25°C° 0 mm 3 mps 658 mmHg 51%
    11:00 +26°C° 0 mm 3 mps 658 mmHg 48%
    12:00 +27°C° 0 mm 4 mps 658 mmHg 46%
    13:00 +27°C° 0 mm 4 mps 658 mmHg 46%
    14:00 +27°C° 0 mm 4 mps 658 mmHg 46%
    15:00 +27°C° 0 mm 4 mps 657 mmHg 46%
    16:00 +27°C° 0 mm 4 mps 657 mmHg 47%
    17:00 +27°C° 0 mm 4 mps 657 mmHg 48%
    18:00 +26°C° 0 mm 4 mps 657 mmHg 49%
    19:00 +25°C° 0 mm 3 mps 657 mmHg 54%
    20:00 +23°C° 0 mm 2 mps 657 mmHg 60%
    21:00 +20°C° 0 mm 2 mps 656 mmHg 65%
    22:00 +20°C° 0 mm 2 mps 656 mmHg 67%
    23:00 +20°C° 0 mm 1 mps 657 mmHg 69%

    Mañana, 23 Julio, Lunes

    Tiempo Temperatura Precipitaciones Viento Presión Humedad
    00:00 +20°C° 0 mm 1 mps 657 mmHg 70%
    01:00 +20°C° 0 mm 1 mps 656 mmHg 71%
    02:00 +19°C° 0 mm 1 mps 656 mmHg 72%
    03:00 +19°C° 0 mm 1 mps 656 mmHg 72%
    04:00 +19°C° 0 mm 1 mps 656 mmHg 70%
    05:00 +20°C° 0 mm 1 mps 656 mmHg 68%
    06:00 +20°C° 0 mm 1 mps 657 mmHg 67%
    07:00 +21°C° 0 mm 2 mps 657 mmHg 60%
    08:00 +24°C° 0 mm 2 mps 657 mmHg 54%
    09:00 +25°C° 0 mm 2 mps 657 mmHg 47%
    10:00 +26°C° 0 mm 3 mps 657 mmHg 44%
    11:00 +27°C° 0 mm 3 mps 657 mmHg 42%
    12:00 +28°C° 0 mm 3 mps 657 mmHg 39%
    13:00 +29°C° 0,1 mm 3 mps 657 mmHg 38%
    14:00 +29°C° 0,1 mm 4 mps 656 mmHg 38%
    15:00 +30°C° 0,1 mm 4 mps 656 mmHg 37%
    16:00 +29°C° 0,1 mm 3 mps 656 mmHg 39%
    17:00 +28°C° 0,1 mm 3 mps 656 mmHg 41%
    18:00 +28°C° 0,1 mm 3 mps 655 mmHg 43%
    19:00 +26°C° 0,1 mm 2 mps 656 mmHg 48%
    20:00 +25°C° 0,1 mm 2 mps 656 mmHg 53%
    21:00 +23°C° 0,1 mm 2 mps 656 mmHg 58%
    22:00 +21°C° 0,2 mm 2 mps 656 mmHg 60%
    23:00 +21°C° 0,2 mm 2 mps 656 mmHg 62%

    Pasado mañana, 24 Julio, Martes

    Tiempo Temperatura Precipitaciones Viento Presión Humedad
    00:00 +20°C° 0,2 mm 2 mps 656 mmHg 64%
    01:00 +20°C° 0 mm 2 mps 656 mmHg 65%
    02:00 +20°C° 0 mm 2 mps 656 mmHg 66%
    03:00 +19°C° 0 mm 2 mps 655 mmHg 66%
    04:00 +20°C° 0 mm 2 mps 656 mmHg 64%
    05:00 +21°C° 0 mm 1 mps 656 mmHg 62%
    06:00 +22°C° 0 mm 1 mps 656 mmHg 60%
    07:00 +24°C° 0 mm 2 mps 656 mmHg 55%
    08:00 +25°C° 0 mm 2 mps 657 mmHg 49%
    09:00 +27°C° 0 mm 2 mps 657 mmHg 43%
    10:00 +29°C° 0 mm 3 mps 657 mmHg 40%
    11:00 +30°C° 0 mm 3 mps 658 mmHg 36%
    12:00 +31°C° 0 mm 3 mps 658 mmHg 33%
    13:00 +33°C° 0 mm 3 mps 657 mmHg 32%
    14:00 +33°C° 0 mm 3 mps 657 mmHg 31%
    15:00 +34°C° 0 mm 3 mps 657 mmHg 31%
    16:00 +33°C° 0 mm 3 mps 657 mmHg 33%
    17:00 +31°C° 0 mm 3 mps 657 mmHg 35%
    18:00 +31°C° 0 mm 2 mps 657 mmHg 37%
    19:00 +29°C° 0 mm 2 mps 657 mmHg 42%
    20:00 +27°C° 0 mm 2 mps 657 mmHg 48%
    21:00 +25°C° 0 mm 2 mps 657 mmHg 53%
    22:00 +24°C° 0 mm 2 mps 657 mmHg 54%
    23:00 +24°C° 0 mm 2 mps 657 mmHg 55%

    25 Julio, Miércoles

    Tiempo Temperatura Precipitaciones Viento Presión Humedad
    00:00 +23°C° 0 mm 2 mps 657 mmHg 55%
    01:00 +23°C° 0 mm 2 mps 657 mmHg 55%
    02:00 +23°C° 0 mm 2 mps 657 mmHg 54%
    03:00 +21°C° 0 mm 2 mps 657 mmHg 53%
    04:00 +23°C° 0 mm 2 mps 657 mmHg 52%
    05:00 +23°C° 0 mm 2 mps 657 mmHg 51%
    06:00 +24°C° 0 mm 2 mps 658 mmHg 50%
    07:00 +26°C° 0 mm 2 mps 658 mmHg 45%
    08:00 +28°C° 0 mm 2 mps 659 mmHg 40%
    09:00 +30°C° 0 mm 2 mps 659 mmHg 35%
    10:00 +31°C° 0 mm 3 mps 659 mmHg 33%
    11:00 +34°C° 0 mm 3 mps 659 mmHg 30%
    12:00 +35°C° 0 mm 3 mps 659 mmHg 28%
    13:00 +35°C° 0 mm 4 mps 659 mmHg 27%
    14:00 +36°C° 0 mm 4 mps 658 mmHg 27%
    15:00 +36°C° 0 mm 4 mps 658 mmHg 26%
    16:00 +35°C° 0 mm 4 mps 658 mmHg 29%
    17:00 +34°C° 0 mm 4 mps 657 mmHg 32%
    18:00 +33°C° 0 mm 4 mps 657 mmHg 35%
    19:00 +30°C° 0 mm 3 mps 657 mmHg 40%
    20:00 +28°C° 0 mm 2 mps 657 mmHg 45%
    21:00 +26°C° 0 mm 2 mps 657 mmHg 50%
    22:00 +25°C° 0 mm 2 mps 657 mmHg 52%
    23:00 +25°C° 0 mm 2 mps 657 mmHg 53%

    26 Julio, Jueves

    Tiempo Temperatura Precipitaciones Viento Presión Humedad
    00:00 +24°C° 0 mm 2 mps 657 mmHg 55%
    01:00 +24°C° 0 mm 2 mps 656 mmHg 55%
    02:00 +24°C° 0 mm 2 mps 656 mmHg 56%
    03:00 +23°C° 0 mm 2 mps 656 mmHg 57%
    04:00 +24°C° 0 mm 1 mps 657 mmHg 55%
    05:00 +24°C° 0 mm 1 mps 657 mmHg 54%
    06:00 +24°C° 0 mm 1 mps 658 mmHg 52%
    07:00 +26°C° 0 mm 2 mps 658 mmHg 48%
    08:00 +28°C° 0 mm 2 mps 658 mmHg 44%
    09:00 +30°C° 0 mm 2 mps 659 mmHg 40%
    10:00 +31°C° 0 mm 3 mps 659 mmHg 37%
    11:00 +33°C° 0 mm 3 mps 659 mmHg 35%
    12:00 +34°C° 0 mm 3 mps 659 mmHg 33%
    13:00 +35°C° 0 mm 4 mps 658 mmHg 32%
    14:00 +35°C° 0 mm 4 mps 658 mmHg 32%
    15:00 +36°C° 0 mm 4 mps 658 mmHg 31%
    16:00 +35°C° 0 mm 4 mps 658 mmHg 33%
    17:00 +34°C° 0 mm 4 mps 658 mmHg 36%
    18:00 +33°C° 0 mm 4 mps 658 mmHg 38%
    19:00 +30°C° 0 mm 3 mps 658 mmHg 43%
    20:00 +28°C° 0 mm 2 mps 657 mmHg 47%
    21:00 +25°C° 0 mm 1 mps 657 mmHg 51%
    22:00 +25°C° 0 mm 2 mps 657 mmHg 52%
    23:00 +24°C° 0 mm 2 mps 657 mmHg 53%

    27 Julio, Viernes

    Tiempo Temperatura Precipitaciones Viento Presión Humedad
    00:00 +24°C° 0 mm 2 mps 657 mmHg 55%
    01:00 +23°C° 0 mm 2 mps 657 mmHg 54%
    02:00 +23°C° 0 mm 2 mps 657 mmHg 53%
    03:00 +23°C° 0 mm 2 mps 657 mmHg 52%
    04:00 +23°C° 0 mm 2 mps 658 mmHg 50%
    05:00 +24°C° 0 mm 2 mps 658 mmHg 48%
    06:00 +24°C° 0 mm 2 mps 659 mmHg 46%
    07:00 +26°C° 0 mm 2 mps 659 mmHg 43%
    08:00 +27°C° 0 mm 2 mps 659 mmHg 40%
    09:00 +29°C° 0 mm 3 mps 660 mmHg 37%
    10:00 +30°C° 0 mm 3 mps 660 mmHg 35%
    11:00 +33°C° 0 mm 4 mps 660 mmHg 32%
    12:00 +34°C° 0 mm 4 mps 660 mmHg 29%
    13:00 +34°C° 0 mm 4 mps 659 mmHg 29%
    14:00 +34°C° 0 mm 5 mps 659 mmHg 28%
    15:00 +35°C° 0 mm 5 mps 659 mmHg 27%
    16:00 +33°C° 0 mm 5 mps 658 mmHg 28%
    17:00 +32°C° 0 mm 5 mps 658 mmHg 29%
    18:00 +30°C° 0 mm 5 mps 658 mmHg 30%
    19:00 +28°C° 0 mm 4 mps 658 mmHg 32%
    20:00 +26°C° 0 mm 3 mps 658 mmHg 35%
    21:00 +24°C° 0 mm 2 mps 657 mmHg 37%
    22:00 +23°C° 0 mm 2 mps 657 mmHg 38%
    23:00 +21°C° 0 mm 2 mps 657 mmHg 38%
    Mostrar más